• In Belarus
  • List of Countries
  • For 7 days
  • Water Temperature
  • Satellite Maps
  • Weather Map
  • Weather Widgets
  • user-avatar
    Login

    Hourly Weather Nadvornaya

    Today, 24 February, Saturday

    Time Temperature Precipitation Wind Pressure Humidity
    00:00 -8°C° 0.4 mm 3 mps 721 mmHg 100%
    01:00 -8°C° 0.4 mm 3 mps 721 mmHg 100%
    02:00 -8°C° 0.4 mm 3 mps 722 mmHg 100%
    03:00 -8°C° 0.2 mm 3 mps 722 mmHg 100%
    04:00 -9°C° 0.3 mm 3 mps 721 mmHg 100%
    05:00 -9°C° 0.2 mm 3 mps 721 mmHg 100%
    06:00 -10°C° 0.2 mm 3 mps 721 mmHg 100%
    07:00 -10°C° 0.2 mm 3 mps 721 mmHg 100%
    08:00 -12°C° 0.1 mm 3 mps 721 mmHg 100%
    09:00 -12°C° 0.1 mm 3 mps 721 mmHg 100%
    10:00 -10°C° 0.1 mm 3 mps 722 mmHg 100%
    11:00 -10°C° 0 mm 3 mps 722 mmHg 100%
    12:00 -11°C° 0.1 mm 4 mps 722 mmHg 100%
    13:00 -11°C° 0.1 mm 4 mps 721 mmHg 100%
    14:00 -11°C° 0.1 mm 4 mps 721 mmHg 100%
    15:00 -12°C° 0 mm 4 mps 721 mmHg 100%
    16:00 -12°C° 0 mm 4 mps 721 mmHg 100%
    17:00 -14°C° 0 mm 4 mps 722 mmHg 100%
    18:00 -15°C° 0 mm 3 mps 722 mmHg 100%
    19:00 -15°C° 0 mm 2 mps 722 mmHg 100%
    20:00 -17°C° 0 mm 3 mps 722 mmHg 100%
    21:00 -16°C° 0 mm 3 mps 722 mmHg 100%
    22:00 -16°C° 0.1 mm 3 mps 722 mmHg 100%
    23:00 -17°C° 0 mm 3 mps 723 mmHg 100%

    Tomorrow, 25 February, Sunday

    Time Temperature Precipitation Wind Pressure Humidity
    00:00 -17°C° 0.1 mm 3 mps 723 mmHg 100%
    01:00 -17°C° 0.1 mm 3 mps 723 mmHg 100%
    02:00 -17°C° 0.1 mm 3 mps 723 mmHg 100%
    03:00 -18°C° 0.1 mm 4 mps 723 mmHg 100%
    04:00 -18°C° 0.1 mm 4 mps 723 mmHg 100%
    05:00 -17°C° 0.1 mm 3 mps 723 mmHg 100%
    06:00 -17°C° 0.1 mm 3 mps 724 mmHg 100%
    07:00 -16°C° 0.1 mm 2 mps 724 mmHg 100%
    08:00 -16°C° 0.1 mm 2 mps 724 mmHg 100%
    09:00 -15°C° 0.1 mm 2 mps 725 mmHg 100%
    10:00 -14°C° 0.1 mm 2 mps 725 mmHg 100%
    11:00 -11°C° 0.1 mm 1 mps 726 mmHg 100%
    12:00 -10°C° 0.1 mm 1 mps 726 mmHg 99%
    13:00 -12°C° 0.1 mm 2 mps 726 mmHg 100%
    14:00 -10°C° 0.1 mm 2 mps 726 mmHg 100%
    15:00 -12°C° 0.1 mm 3 mps 726 mmHg 99%
    16:00 -13°C° 0 mm 3 mps 726 mmHg 98%
    17:00 -13°C° 0 mm 3 mps 726 mmHg 99%
    18:00 -13°C° 0 mm 2 mps 726 mmHg 100%
    19:00 -12°C° 0 mm 1 mps 726 mmHg 100%
    20:00 -13°C° 0 mm 0 mps 726 mmHg 100%
    21:00 -13°C° 0 mm 0 mps 726 mmHg 100%
    22:00 -14°C° 0 mm 0 mps 727 mmHg 100%
    23:00 -14°C° 0 mm 0 mps 727 mmHg 100%

    Day after tomorrow, 26 February, Monday

    Time Temperature Precipitation Wind Pressure Humidity
    00:00 -15°C° 0 mm 0 mps 727 mmHg 100%
    01:00 -15°C° 0 mm 0 mps 726 mmHg 100%
    02:00 -16°C° 0 mm 0 mps 726 mmHg 100%
    03:00 -17°C° 0 mm 1 mps 726 mmHg 100%
    04:00 -17°C° 0 mm 1 mps 725 mmHg 100%
    05:00 -18°C° 0 mm 0 mps 725 mmHg 100%
    06:00 -18°C° 0 mm 0 mps 725 mmHg 100%
    07:00 -18°C° 0 mm 1 mps 725 mmHg 100%
    08:00 -19°C° 0 mm 0 mps 725 mmHg 100%
    09:00 -18°C° 0 mm 0 mps 725 mmHg 100%
    10:00 -17°C° 0 mm 0 mps 726 mmHg 100%
    11:00 -16°C° 0 mm 0 mps 726 mmHg 100%
    12:00 -17°C° 0 mm 2 mps 726 mmHg 100%
    13:00 -16°C° 0 mm 2 mps 726 mmHg 100%
    14:00 -16°C° 0 mm 2 mps 725 mmHg 100%
    15:00 -16°C° 0 mm 3 mps 725 mmHg 100%
    16:00 -16°C° 0 mm 3 mps 725 mmHg 100%
    17:00 -17°C° 0.1 mm 3 mps 725 mmHg 100%
    18:00 -17°C° 0.1 mm 3 mps 724 mmHg 100%
    19:00 -17°C° 0.1 mm 2 mps 724 mmHg 100%
    20:00 -17°C° 0.1 mm 2 mps 724 mmHg 100%
    21:00 -17°C° 0.1 mm 2 mps 724 mmHg 100%
    22:00 -18°C° 0 mm 2 mps 723 mmHg 100%
    23:00 -18°C° 0 mm 2 mps 723 mmHg 100%

    27 February, Tuesday

    Time Temperature Precipitation Wind Pressure Humidity
    00:00 -18°C° 0.2 mm 2 mps 723 mmHg 100%
    01:00 -18°C° 0.2 mm 2 mps 722 mmHg 100%
    02:00 -18°C° 0.3 mm 2 mps 722 mmHg 100%
    03:00 -18°C° 0.2 mm 2 mps 721 mmHg 100%
    04:00 -19°C° 0.1 mm 2 mps 721 mmHg 100%
    05:00 -21°C° 0.1 mm 3 mps 720 mmHg 100%
    06:00 -21°C° 0.1 mm 3 mps 720 mmHg 100%
    07:00 -21°C° 0.1 mm 3 mps 719 mmHg 100%
    08:00 -21°C° 0.1 mm 3 mps 719 mmHg 100%
    09:00 -21°C° 0.2 mm 3 mps 719 mmHg 100%
    10:00 -19°C° 0.2 mm 3 mps 719 mmHg 100%
    11:00 -19°C° 0.1 mm 4 mps 719 mmHg 100%
    12:00 -18°C° 0.1 mm 4 mps 718 mmHg 100%
    13:00 -18°C° 0.1 mm 4 mps 718 mmHg 100%
    14:00 -18°C° 0.4 mm 4 mps 717 mmHg 100%

    28 February, Wednesday

    Time Temperature Precipitation Wind Pressure Humidity

    1 March, Thursday

    Time Temperature Precipitation Wind Pressure Humidity
    Show more